Terminal Aerodrome Forecast
Issued by NWS Billings, MT

Home | Current Version | Previous Version | Text Only | Print | Product List | Glossary Off
Versions: 1 2 3 4 5 6 7 8 9 10 11 12 13 14 15 16 17 18 19 20 21 22 23 24 25 26 27 28 29 30 31 32 33 34 35 36 37 38 39 40

000
FTUS45 KBYZ 252328
TAFMLS
TAF
KMLS 252328Z 2600/2624 15006KT P6SM -RA FEW006 SCT035 OVC050
     FM260200 15005KT P6SM SCT035 BKN070
     FM261100 23004KT 2SM BR SCT001 SCT070
     FM261400 30009KT P6SM FEW150=

USA.gov is the U.S. government's official web portal to all federal, state and local government web resources and services.